Location: Allentsteig
(48.6833°N, 15.3167°E)
Time: 06:32:18
(UTC+00:00)

H-2A R/B - Pass Details

Date: 18 September 2020
Orbit: 734 x 836 km, 98.2° (Epoch: 23 October)

Event Time Altitude Azimuth Distance (km) Brightness Sun altitude
Rises 17:33:47 0° 152° (SSE) 3,162 4.8 -5.6°
Reaches altitude 10° 17:36:04 10° 149° (SSE) 2,251 4.1 -6.0°
Maximum altitude 17:40:55 59° 71° (ENE) 872 2.1 -6.8°
Drops below altitude 10° 17:45:54 10° 353° (N) 2,318 4.7 -7.6°
Sets 17:48:17 0° 349° (N) 3,264 5.6 -8.0°
